SCP
0 0 0 0 0 0 0 0 0 0 0 0 0 0 0 0 0 0 0 0 0 0 0 0 0 0 0 0 0 0 0 0 0 0 0 0 0 0 0 0 0 0 0 0
0 0 0 0 0 0 0 0 0 0 0 0 0 0 0 0 0 0 0 0 0 0 0 0 0 0 0 0 0 0 0 0 0 0 0 0 0 0 0 0 0 0 0 0
0 0 0 0 0 0 0 0 0 0 0 0 0 0 0 0 0 0 0 0 0 0 0 0 0 0 0 0 0 0 0 0 0 0 0 0 0 0 0 0 0 0 0 0
0 0 0 0 0 0 0 0 0 0 0 0 0 0 0 0 0 0 0 0 0 0 0 0 0 0 0 0 0 0 0 0 0 0 0 0 0 0 0 0 0 0 0 0
0 0 0 0 0 0 0 0 0 0 0 0 0 0 0 0 0 0 0 0 0 0 0 0 0 0 0 0 0 0 0 0 0 0 0 0 0 0 0 0 0 0 0 0
0 0 0 0 0 0 0 0 0 0 0 0 0 0 0 0 0 0 0 0 0 0 0 0 0 0 0 0 0 0 0 0 0 0 0 0 0 0 0 0 0 0 0 0
0 0 0 0 0 0 0 0 0 0 0 0 0 0 0 0 0 0 0 0 0 0 0 0 0 0 0 0 0 0 0 0 0 0 0 0 0 0 0 0 0 0 0 0
0 0 0 0 0 0 0 0 0 0 0 0 0 0 0 0 0 0 0 0 0 0 0 0 0 0 0 0 0 0 0 0 0 0 0 0 0 0 0 0 0 0 0 0
0 0 0 0 0 0 0 0 0 0 0 0 0 0 0 0 0 0 0 0 0 0 0 0 0 0 0 0 0 0 0 0 0 0 0 0 0 0 0 0 0 0 0 0
0 0 0 0 0 0 0 0 0 0 0 0 0 0 0 0 0 0 0 0 0 0 0 0 0 0 0 0 0 0 0 0 0 0 0 0 0 0 0 0 0 0 0 0
0 0 0 0 0 0 0 0 0 0 0 0 0 0 0 0 0 0 0 0 0 0 0 0 0 0 0 0 0 0 0 0 0 0 0 0 0 0 0 0 0 0 0 0
0 0 0 0 0 0 0 0 0 0 0 0 0 0 0 0 0 0 0 0 0 0 0 0 0 0 0 0 0 0 0 0 0 0 0 0 0 0 0 0 0 0 0 0
0 0 0 0 0 0 0 0 0 0 0 0 0 0 0 0 0 0 0 0 0 0 0 0 0 0 0 0 0 0 0 0 0 0 0 0 0 0 0 0 0 0 0 0
0 0 0 0 0 0 0 0 0 0 0 0 0 0 0 0 0 0 0 0 0 0 0 0 0 0 0 0 0 0 0 0 0 0 0 0 0 0 0 0 0 0 0 0
0 0 0 0 0 0 0 0 0 0 0 0 0 0 0 0 0 0 0 0 0 0 0 0 0 0 0 0 0 0 0 0 0 0 0 0 0 0 0 0 0 0 0 0
0 0 0 0 0 0 0 0 0 0 0 0 0 0 0 0 0 0 0 0 0 0 0 0 0 0 0 0 0 0 0 0 0 0 0 0 0 0 0 0 0 0 0 0
0 0 0 0 0 0 0 0 0 0 0 0 0 0 0 0 0 0 0 0 0 0 0 0 0 0 0 0 0 0 0 0 0 0 0 0 0 0 0 0 0 0 0 0
0 0 0 0 0 0 0 0 0 0 0 0 0 0 0 0 0 0 0 0 0 0 0 0 0 0 0 0 0 0 0 0 0 0 0 0 0 0 0 0 0 0 0 0
0 0 0 0 0 0 0 0 0 0 0 0 0 0 0 0 0 0 0 0 0 0 0 0 0 0 0 0 0 0 0 0 0 0 0 0 0 0 0 0 0 0 0 0
0 0 0 0 0 0 0 0 0 0 0 0 0 0 0 0 0 0 0 0 0 0 0 0 0 0 0 0 0 0 0 0 0 0 0 0 0 0 0 0 0 0 0 0
0 0 0 0 0 0 0 0 0 0 0 0 0 0 0 0 0 0 0 0 0 0 0 0 0 0 0 0 0 0 0 0 0 0 0 0 0 0 0 0 0 0 0 0
0 0 0 0 0 0 0 0 0 0 0 0 0 0 0 0 0 0 0 0 0 0 0 0 0 0 0 0 0 0 0 0 0 0 0 0 0 0 0 0 0 0 0 0
0 0 0 0 0 0 0 0 0 0 0 0 0 0 0 0 0 0 0 0 0 0 0 0 0 0 0 0 0 0 0 0 0 0 0 0 0 0 0 0 0 0 0 0
0 0 0 0 0 0 0 0 0 0 0 0 0 0 0 0 0 0 0 0 0 0 0 0 0 0 0 0 0 0 0 0 0 0 0 0 0 0 0 0 0 0 0 0
0 0 0 0 0 0 0 0 0 0 0 0 0 0 0 0 0 0 0 0 0 0 0 0 0 0 0 0 -0 0 0 0 0 0 0 0 0 0 0 0 0 0 0 0
0 0 0 0 0 0 0 0 0 0 0 0 0 0 0 0 0 0 0 0 0 0 0 0 0 0 0 0 0 0 0 0 0 0 0 0 0 0 0 0 0 0 0 0
0 0 0 0 0 0 0 0 0 0 0 0 0 0 0 0 0 0 0 0 0 0 0 0 0 0 0 0 0 0 0 0 0 0 0 0 0 0 0 0 0 0 0 0
Wind_Speed
3 2 3 5 5 7 7 7 8 8 7 12 9 7 7 7 7 6 7 7 7 6 6 5 5 5 4 4 3 2 1 2 3 3 3 4 4 4 5 5 5 5 5 6
1 2 3 3 5 6 7 5 7 6 10 10 6 4 4 6 7 7 8 8 7 6 6 6 5 5 4 4 3 2 2 2 3 3 3 4 4 4 4 5 5 5 5 5
2 4 2 4 5 6 6 7 7 7 9 5 4 5 6 7 7 9 9 8 7 7 6 6 5 5 5 4 2 3 3 2 2 2 3 4 4 4 4 4 4 5 5 5
1 2 2 5 2 5 5 6 8 8 8 6 7 5 5 6 8 9 8 8 7 6 6 5 4 3 3 2 2 3 2 3 3 2 3 4 4 4 4 3 4 4 4 5
3 1 6 6 2 4 2 4 4 6 7 5 1 3 6 6 9 10 9 8 7 7 5 4 4 3 2 2 2 3 3 4 3 3 3 4 4 4 3 3 4 3 3 4
4 1 3 5 2 1 2 4 4 4 4 1 3 2 6 5 5 8 7 6 6 5 4 4 4 3 3 3 3 5 5 5 4 3 3 4 4 4 3 3 3 4 3 3
4 2 8 8 3 1 2 6 4 2 2 5 6 7 5 4 3 5 6 7 6 5 5 6 4 4 5 5 6 6 5 4 4 4 4 4 3 2 3 3 3 3 4 4
5 3 7 3 3 4 6 4 2 2 2 5 8 7 6 6 5 5 5 5 6 5 6 5 5 6 6 7 7 5 4 4 5 4 4 3 3 3 2 2 3 3 4 4
9 7 3 3 1 4 3 3 3 3 3 3 5 5 5 5 6 5 6 6 5 6 6 5 5 7 8 8 6 5 5 6 5 5 4 3 3 3 2 1 1 2 2 3
3 3 1 3 4 6 5 3 4 4 4 2 3 5 5 5 5 5 5 6 5 5 6 7 6 7 9 7 5 6 7 7 5 5 5 4 3 3 3 2 2 2 2 3
3 2 0 4 8 9 8 7 7 7 6 6 4 5 5 5 5 5 5 4 4 6 8 9 7 7 8 7 6 7 7 6 6 5 5 5 4 4 5 5 5 4 3 2
5 2 2 1 5 8 7 9 9 9 10 9 8 7 6 5 5 5 5 4 4 6 8 9 7 8 8 7 7 7 7 7 6 5 4 4 4 4 7 8 9 10 9 7
3 1 2 1 5 7 6 7 7 8 9 9 9 9 8 7 6 6 6 5 6 7 8 8 8 9 9 7 8 9 9 8 5 5 5 5 4 4 5 5 7 10 11 11
1 3 4 3 4 6 6 6 6 7 8 8 8 9 9 9 8 10 10 9 8 7 7 7 7 10 9 6 8 10 10 10 8 6 6 6 6 5 5 4 4 4 5 9
5 6 6 4 4 5 5 5 8 10 10 10 10 11 12 12 12 12 11 12 9 7 7 7 7 11 9 5 7 10 9 7 7 6 6 6 5 5 5 5 5 4 3 4
7 7 6 6 6 6 7 9 10 9 9 10 11 11 10 9 8 9 11 13 13 12 11 10 10 12 10 7 7 7 8 13 11 7 6 6 6 6 6 6 6 5 5 5
8 6 5 5 5 6 6 6 6 6 7 8 9 9 9 10 11 13 13 13 11 10 11 12 14 15 12 9 7 7 7 8 12 8 7 7 7 7 7 7 6 6 7 7
7 6 6 6 5 5 5 5 5 6 6 6 7 8 10 11 12 12 12 12 11 10 12 14 16 16 14 12 8 7 6 6 6 8 8 8 8 8 7 7 8 8 6 5
8 7 6 6 5 5 4 4 4 4 5 6 7 7 7 8 8 10 10 11 13 15 16 17 23 17 15 16 16 7 7 7 7 7 7 9 9 7 7 8 8 8 7 6
7 7 6 5 4 4 3 3 3 4 4 5 5 6 7 8 8 9 9 7 7 9 13 16 15 13 15 16 19 9 8 8 8 7 7 7 8 8 8 9 9 8 8 7
7 6 6 4 3 3 2 2 2 3 4 4 4 5 6 6 7 7 7 7 9 11 13 18 12 12 13 18 19 11 9 9 8 8 7 8 8 9 9 9 9 9 8 8
5 5 4 3 2 1 1 1 1 2 2 3 3 4 5 6 7 6 5 5 8 15 11 8 9 17 22 20 12 12 11 10 9 7 7 7 8 8 9 9 9 9 9 8
4 4 3 3 2 2 2 2 2 2 3 3 4 4 4 5 4 4 6 6 6 14 10 7 17 24 25 13 11 12 13 12 11 10 9 8 8 8 9 9 9 9 9 9
4 4 3 3 2 2 3 4 3 3 4 4 5 5 4 4 4 4 5 10 13 14 7 12 19 23 20 9 10 11 11 12 12 11 11 10 8 8 8 8 8 8 9 10
4 3 3 3 3 4 4 4 4 4 4 4 5 6 4 4 5 6 6 7 12 12 7 12 19 20 11 8 9 10 10 11 12 12 11 11 10 9 8 8 8 8 8 9
4 4 4 4 4 4 3 2 3 3 3 4 4 4 4 4 5 6 5 7 9 12 8 7 8 10 7 7 8 9 9 11 11 10 11 11 12 11 10 9 11 9 8 9
3 3 2 3 3 3 3 3 3 4 4 4 5 5 5 5 5 5 6 6 6 7 7 7 6 7 7 7 8 8 8 8 9 10 10 10 10 11 12 13 10 9 8 8
Wind_Direction
226 223 183 206 196 175 185 193 206 241 248 267 269 253 246 231 226 233 247 253 255 261 271 281 285 282 271 264 254 234 241 285 296 309 319 327 332 333 337 343 345 339 341 344
353 358 202 237 233 199 213 213 235 266 274 260 266 255 250 231 219 228 240 246 251 258 264 268 271 274 272 260 244 212 226 262 288 312 325 329 327 328 334 337 337 340 343 341
311 321 25 285 241 192 210 211 201 227 248 275 272 256 247 232 220 225 233 238 243 249 251 255 258 258 258 251 226 209 228 259 282 298 311 318 323 329 328 327 330 331 332 337
62 33 250 245 244 186 210 241 215 236 257 260 249 264 258 229 217 229 232 233 237 239 244 249 250 255 251 225 209 213 234 261 273 282 297 311 319 319 317 314 320 320 324 332
100 57 294 300 249 176 195 288 220 229 268 279 274 339 300 235 210 220 224 223 226 226 225 237 245 243 214 216 216 223 240 252 258 260 281 301 308 310 310 313 319 319 320 334
117 145 238 249 277 197 119 306 278 223 273 208 114 28 280 280 226 226 226 221 221 218 214 230 237 200 191 220 225 234 236 239 245 246 259 276 288 296 300 306 309 316 325 339
145 211 264 251 259 108 112 256 273 237 241 172 195 215 242 302 263 229 223 219 212 204 212 225 212 182 206 222 231 233 229 232 241 245 252 260 279 288 305 319 331 336 331 329
146 181 256 270 157 172 222 257 280 269 240 208 235 263 270 278 276 254 235 222 204 204 224 227 200 189 214 231 233 223 217 229 241 246 252 255 264 289 311 333 338 338 335 330
182 202 238 355 284 308 291 277 289 295 301 259 259 276 277 269 267 257 239 228 210 209 230 235 212 199 218 236 221 206 214 231 240 247 247 246 245 266 288 306 317 318 326 324
235 270 77 30 359 345 331 305 311 318 323 328 284 295 300 289 279 266 249 233 218 212 230 242 226 215 227 236 207 202 219 232 235 239 248 243 233 230 234 249 259 280 298 307
233 273 73 23 10 348 350 13 23 22 24 16 0 335 318 303 293 279 267 251 224 221 233 245 239 231 233 225 201 211 225 232 233 231 235 238 235 227 224 226 209 214 229 235
198 188 163 26 345 346 12 24 22 27 27 20 16 356 342 324 313 302 290 280 259 247 245 251 247 245 242 218 199 207 225 231 228 225 227 227 236 259 239 232 239 232 224 217
199 197 141 95 11 3 18 25 28 33 29 20 13 7 2 348 337 332 321 307 283 270 262 261 255 253 250 221 202 209 221 226 220 217 218 220 218 227 257 265 246 244 240 234
134 134 97 53 17 8 22 29 40 41 32 25 15 12 11 5 359 357 345 325 306 293 286 280 273 267 264 232 211 219 224 228 220 216 214 215 216 216 218 231 258 267 250 239
66 90 107 96 60 39 34 42 49 38 27 23 19 18 14 10 3 355 347 343 335 327 317 310 296 287 287 257 229 228 224 225 222 216 211 211 212 211 213 219 228 242 257 262
103 88 92 86 69 51 46 45 45 32 22 18 17 12 5 360 353 352 355 356 356 351 345 338 325 313 312 290 258 244 235 232 219 213 210 208 207 208 214 218 224 229 235 235
125 118 107 91 75 60 50 46 42 30 21 19 11 4 4 5 6 5 1 358 358 359 360 354 341 332 325 311 283 263 249 242 229 216 213 212 210 212 214 214 219 225 234 225
125 128 133 126 112 87 60 45 37 29 21 9 6 9 11 10 3 354 348 346 353 359 360 350 341 339 336 328 311 285 266 248 230 223 219 216 215 213 210 212 218 225 234 230
120 118 114 108 106 97 76 50 31 20 12 8 9 7 2 358 351 346 345 351 360 357 349 342 343 345 340 337 331 302 282 265 248 236 227 223 220 216 213 215 219 222 223 217
119 117 112 103 96 93 79 49 28 19 7 4 5 3 360 352 347 344 344 346 350 337 331 340 345 342 339 335 334 318 299 279 263 250 237 229 224 221 219 218 219 220 220 217
131 126 118 111 99 83 72 49 29 6 352 356 1 351 340 333 336 339 344 343 337 334 338 345 345 339 340 340 336 330 319 303 284 265 249 239 234 230 225 221 220 219 219 218
144 141 137 133 126 103 341 339 326 323 331 334 334 332 334 332 332 332 325 311 318 335 342 336 336 345 350 348 341 338 333 324 311 294 273 255 244 239 234 228 224 222 219 216
157 162 166 177 188 225 280 274 262 273 286 295 300 303 301 296 296 307 316 314 317 336 341 329 339 347 353 351 343 343 340 337 330 319 304 284 263 251 245 239 233 226 220 217
171 184 197 199 188 221 263 266 266 263 265 272 270 269 269 284 290 269 264 305 323 331 330 330 343 350 352 346 341 342 341 338 335 330 324 313 296 276 260 249 243 237 229 222
186 196 201 200 215 231 241 260 280 277 274 274 276 272 255 235 250 279 291 295 309 321 317 324 336 341 343 333 336 337 337 336 337 335 332 329 322 308 290 272 255 246 239 233
189 203 214 215 221 231 236 239 252 266 270 280 285 280 274 263 258 268 279 287 292 306 307 303 308 319 320 321 324 327 329 330 332 332 330 329 327 324 315 302 282 266 253 243
205 215 225 247 248 228 222 227 242 260 260 260 276 284 287 286 283 281 283 285 290 293 293 294 295 298 302 306 310 314 318 321 324 327 327 326 325 324 321 314 303 288 272 257